ロニオス彗星

359P/LONEOS (2017)

English version
Home page
Updated on March 3, 2018

---------------------------------------------------------------------

・ プロフィール

符号 359P/2017 Q2
検出日 2017年8月22日
検出光度 20.6等
検出者 Pan-STARRS 1 telescope (Haleakala)

・ 写真集

・ 軌道要素

Epoch 2017 Sept. 4.0 TT = JDT 2458000.5
T 2017 Aug. 20.53129 TT                                 MPCW
q   3.1396984            (2000.0)            P               Q
n   0.09869502     Peri.  200.12326     +0.98180182     +0.16743509
a   4.6373786      Node   149.79864     -0.14053486     +0.95795214
e   0.3229584      Incl.   10.26172     -0.12773073     +0.23300900
P   9.99
From 130 observations 2007 Aug. 21-2018 Jan. 20, mean residual 0".6.

・ 光度変化

        m1 = 13.0 + 5 logΔ + 10.0 log r  [   ,120]  (              〜2017年12月18日)
        m1 = 10.0 + 5 logΔ + 10.0 log r  [120,   ]  (2017年12月18日〜              )

---------------------------------------------------------------------

軌道要素はM.P.E.C. 2018-B155に掲載されたものです。
光度グラフはComet for Windowsで作成したものです。

---------------------------------------------------------------------

Copyright(C) Seiichi Yoshida (comet@aerith.net). All rights reserved.